Other Public Products
Issued by NWS Grand Forks, ND

Home | Current Version | Previous Version | Text Only | Print | Product List | Glossary On
Versions: 1 2 3 4 5 6 7 8 9 10 11 12 13 14 15 16 17 18 19 20 21 22 23 24 25 26 27 28 29 30 31 32 33 34 35 36 37 38 39 40 41 42 43 44 45 46 47 48 49 50
000
FPUS83 KFGF 280031
OPUFGF
PRAIRIE TO PINES WEATHER ROUNDUP
NATIONAL WEATHER SERVICE EASTERN NORTH DAKOTA/GRAND FORKS ND
600 PM CST THU NOV 27 2014

 **SATELLITE DATA USED TO AUGMENT SKY COVER AT AUTOMATED STATIONS**
 *****  WEATHER ACROSS EASTERN NORTH DAKOTA  *****

CITY           SKY/WX    TMP DP  RH WIND       PRES   REMARKS
GRAND FORKS    CLOUDY     5  -3  69 S13       30.25F WCI -12
6HR MIN TEMP:   3; 6HR MAX TEMP:   6;

GRAND FORKS AF FLURRIES   5  -4  66 S12       30.23F WCI -11
GRAND CITY NWS   N/A      5 N/A N/A S10         N/A  WCI -10
BUXTON           N/A      6   0  74 SE9         N/A  WCI  -8
DEVILS LAKE    CLOUDY     7  -4  61 SE13      30.10F WCI  -9
6HR MIN TEMP:   3; 6HR MAX TEMP:   7;

FARGO          MOCLDY     8  -2  63 S13       30.26F WCI  -8
6HR MIN TEMP:   2; 6HR MAX TEMP:   9;

WAHPETON ARPT  CLOUDY     7  -4  61 SE16      30.25F WCI -11
$$

 *****  WEATHER ACROSS CENTRAL AND WESTERN NORTH DAKOTA  *****

CITY           SKY/WX    TMP DP  RH WIND       PRES   REMARKS
JAMESTOWN      LGT SNOW   5   0  79 SE12      30.09F WCI -11
6HR MIN TEMP:   1; 6HR MAX TEMP:   6; 6HR PCP: TRACE;

BISMARCK       FLURRIES  12   8  84 SE18      29.99F WCI  -6
6HR MIN TEMP:   7; 6HR MAX TEMP:  12; 6HR PCP:  0.08;

MINOT          LGT SNOW  12   8  84 E12       29.99R FOG     WCI  -2
6HR MIN TEMP:  11; 6HR MAX TEMP:  13; 6HR PCP:  0.01;

MINOT AFB      CLOUDY    12  10  92 SE18      29.98F BLWGSNOWWCI  -5
6HR MIN TEMP:  11; 6HR MAX TEMP:  13; 6HR PCP:  0.01;

GARRISON         N/A     13   9  84 SE14      29.94S WCI  -2
6HR MIN TEMP:  10; 6HR MAX TEMP:  13; 6HR PCP:  0.11;

WILLISTON      CLOUDY    19  14  81 E10       29.85S WCI   7
6HR MIN TEMP:  19; 6HR MAX TEMP:  21; 6HR PCP:  0.17;

DICKINSON      CLOUDY    25  20  81 S16       29.78F WCI  12
6HR MIN TEMP:  19; 6HR MAX TEMP:  25; 6HR PCP: TRACE;

HETTINGER      MOCLDY    24  20  84 S8        29.85F WCI  15
6HR MIN TEMP:  19; 6HR MAX TEMP:  25; 6HR PCP: TRACE;

$$

 *****  OTHER OBSERVATIONS NORTHEAST NORTH DAKOTA  *****

CITY           SKY/WX    TMP DP  RH WIND       PRES   REMARKS
WALHALLA         N/A      7   0  72 SE12G17   30.20F WCI  -9
LANGDON        CLOUDY     7   1  78 S13       30.11F HAZE    WCI  -9
CAVALIER       FAIR       7   0  72 S13       30.23S WCI  -9
GRAFTON        FAIR       5  -2  72 S13       30.25S WCI -12
CANDO          LGT SNOW   7   1  78 SE13      30.11F WCI  -9
FORT TOTTEN      N/A      5  -1  76 SE9       29.95  WCI  -9
ROLLA          LGT SNOW   5   1  85 SE9       30.07F WCI  -9
RUGBY          LGT SNOW   7   3  85 E16       30.05F WCI -11
 ***** THE ABOVE OBSERVATIONS ARE NON NWS ARE NOT QUALITY
        CONTROLLED AND MAY MIS-REPORT RAIN FOR SNOW...
$$

 *****  OTHER OBSERVATIONS SOUTHEAST NORTH DAKOTA *****

CITY           SKY/WX    TMP DP  RH WIND       PRES   REMARKS
COOPERSTOWN    NOT AVBL
VALLEY CITY    LGT SNOW   5   1  85 SE14      30.14F WCI -12
OAKES          LGT SNOW   7   5  92 SE13      30.13F WCI  -9
GWINNER        CLOUDY     9   1  72 SE16      30.17F WCI  -9
SHEYENNE NWR     N/A      6  -5  60 SE10      29.95S WCI  -9
BUFFALO        NOT AVBL
WYNDMERE         N/A      7  -2  66 SE10        N/A  WCI  -8
 ***** THE ABOVE OBSERVATIONS ARE NON NWS ARE NOT QUALITY
       CONTROLLED AND MAY MIS-REPORT RAIN FOR SNOW...
$$

  *****  WEATHER ACROSS NORTHERN MINNESOTA  *****

CITY           SKY/WX    TMP DP  RH WIND       PRES   REMARKS
FLAG ISLAND    PTCLDY     0  -6  78 SE7       30.23F WCI -13
WARROAD        PTCLDY     3  -2  78 S5        30.25F WCI  -6
ROSEAU         MOCLDY     3  -4  72 S8          N/A  WCI -10
HALLOCK        MOCLDY     5  -2  72 S15       30.25S WCI -13
THF RVR FALLS  CLOUDY     3  -2  78 SE7       30.24F WCI  -9
6HR MIN TEMP:  -2; 6HR MAX TEMP:   3;

HALSTAD          N/A      8   0  67 S13         N/A  WCI  -7
FOSSTON        MOCLDY     3  -2  78 CALM      30.23F
BAUDETTE       PTCLDY     1  -7  68 S6        30.25F WCI -10
6HR MIN TEMP:  -2; 6HR MAX TEMP:   4;

WASKISH        PTCLDY     1  -4  78 CALM      30.25F
CROOKSTON      CLOUDY     7   0  72 S8        30.26F WCI  -6
$$
  *****  WEATHER ACROSS CENTRAL AND WEST MINNESOTA  *****

CITY           SKY/WX    TMP DP  RH WIND       PRES   REMARKS
BEMIDJI        MOCLDY     4  -4  68 SE7       30.23F WCI  -8
PARK RAPIDS    PTCLDY     6  -5  60 SE6       30.23F WCI  -4
6HR MIN TEMP:   2; 6HR MAX TEMP:   8;

WADENA         CLOUDY     3  -4  72 S8        30.24F WCI -10
DETROIT LAKES  FAIR      10   0  61 S10       30.22F WCI  -3
MOORHEAD       PTCLDY     9   1  72 SE10      30.25F WCI  -6
FERGUS FALLS   CLOUDY     7  -6  56 SE12      30.28F WCI  -9
ELBOW LAKE     CLOUDY     5  -4  68 SE13      30.25F WCI -12
MORRIS MN      MOCLDY     5  -2  72 SE16      30.25F WCI -14
STAPLES        CLOUDY     3  -6  66 SE6       30.26F WCI  -8
WHEATON        FLURRIES   3  -2  78 SE15      30.27F WCI -15
$$
  *****  WEATHER ELSEWHERE ACROSS MINNESOTA  *****

CITY           SKY/WX    TMP DP  RH WIND       PRES   REMARKS
DULUTH         PTCLDY     2  -9  60 CALM      30.29F
6HR MIN TEMP:   2; 6HR MAX TEMP:  10;

INTRNTL FALLS  PTCLDY    -4  -9  79 CALM      30.28F
6HR MIN TEMP:  -6; 6HR MAX TEMP:   3;

ELY            PTCLDY    -9 -13  84 CALM      30.28F
CLOQUET        PTCLDY     1  -4  78 CALM      30.29F
BRAINERD       PTCLDY     4  -5  66 S8        30.31F WCI  -9
6HR MIN TEMP:   1; 6HR MAX TEMP:   6;

HIBBING        PTCLDY    -2  -8  76 CALM      30.28F
6HR MIN TEMP:  -2; 6HR MAX TEMP:   8;

ALEXANDRIA     CLOUDY     5  -2  72 SE9       30.27F WCI  -9
6HR MIN TEMP:   3; 6HR MAX TEMP:   7;

SAINT CLOUD    PTCLDY     7  -4  60 SE6       30.34F WCI  -3
6HR MIN TEMP:   4; 6HR MAX TEMP:   8;

MINNEAPOLIS    PTCLDY     7  -5  57 S6        30.39F WCI  -3
6HR MIN TEMP:   5; 6HR MAX TEMP:   9;

$$

  *****  WEATHER ACROSS SOUTH DAKOTA  *****

CITY           SKY/WX    TMP DP  RH WIND       PRES   REMARKS
SIOUX FALLS    CLOUDY    12   3  67 SE13      30.22F WCI  -3
6HR MIN TEMP:   6; 6HR MAX TEMP:  12;

BROOKINGS      NOT AVBL
WATERTOWN      CLOUDY    11   2  67 SE14      30.16F WCI  -5
6HR MIN TEMP:   5; 6HR MAX TEMP:  11; 6HR PCP: TRACE;

HURON          CLOUDY    14   5  67 SE15G28   30.14F WCI  -1
6HR MIN TEMP:   8; 6HR MAX TEMP:  14;

SISSETON         N/A      4  -1  80 S15       30.22F WCI -14
ABERDEEN       LGT SNOW  14   6  70 SE13      30.15F WCI   0
6HR MIN TEMP:   4; 6HR MAX TEMP:  14; 6HR PCP: TRACE;

MITCHELL       CLOUDY    16   9  74 SE16      30.16F WCI   1
PIERRE         CLOUDY    24  16  71 SE16      29.97F WCI  11
6HR MIN TEMP:  19; 6HR MAX TEMP:  24;

MOBRIDGE       CLOUDY    17  10  74 SE20      29.95F WCI   1
RAPID CITY     CLEAR     32  26  78 SE5       29.87F
6HR MIN TEMP:  24; 6HR MAX TEMP:  36;

$$

  *****  SOME WEATHER IN NEARBY STATES *****

CITY           SKY/WX    TMP DP  RH WIND       PRES   REMARKS
GLASGOW MT     CLEAR     28  25  88 E9        29.75S WCI  19
6HR MIN TEMP:  26; 6HR MAX TEMP:  34;

GREAT FALLS MT CLEAR     48  35  60 W13       29.74R
6HR MIN TEMP:  48; 6HR MAX TEMP:  57;

CHEYENNE WY    PTCLDY    51  22  31 NW21G32   30.11R
6HR MIN TEMP:  50; 6HR MAX TEMP:  57;

SCOTTSBLUFF NE CLEAR     51  29  42 W13       29.98S
6HR MIN TEMP:  29; 6HR MAX TEMP:  55;

OMAHA NE       MOCLDY    22  11  62 SE14      30.32F WCI   9
6HR MIN TEMP:  18; 6HR MAX TEMP:  23;

DES MOINES IA  CLOUDY    13   1  59 SE7       30.41F WCI   3
6HR MIN TEMP:  10; 6HR MAX TEMP:  15;

DAVENPORT IA   CLEAR     10   0  63 W9        30.45S WCI  -3
6HR MIN TEMP:   9; 6HR MAX TEMP:  19;

CHICAGO IL     CLOUDY    21  11  65 NW10      30.39R WCI  10
6HR MIN TEMP:  20; 6HR MAX TEMP:  26; 6HR PCP: TRACE;

EAU CLAIRE WI  PTCLDY     3  -5  69 CALM      30.39S
6HR MIN TEMP:   2; 6HR MAX TEMP:   9;

LA CROSSE WI   PTCLDY     8  -2  63 NE3       30.42F
6HR MIN TEMP:   7; 6HR MAX TEMP:  15;

$$

  *****  SOME NATIONAL WEATHER *****

CITY           SKY/WX    TMP DP  RH WIND       PRES   REMARKS
LA GUARDIA NY  CLOUDY    37  27  67 NW12      30.03R



USA.gov is the U.S. government's official web portal to all federal, state and local government web resources and services.